Location: Ercé
(47.8305°N, 1.5587°W)
Time: 00:54:06
(UTC+00:00)

Daily predictions for brighter satellites

Satellite Brightness Start Highest point End
(mag) Time Altitude Azimuth Time Altitude Azimuth Time Altitude Azimuth
Cosmos 1842 3.7 00:03:56 46° WSW 00:04:26 49° WNW 00:08:14 10° N
Cosmos 1908 4.0 00:00:53 10° N 00:04:29 40° ENE 00:05:00 38° E
Cosmos 1900 4.5 00:03:38 36° SW 00:05:41 74° NW 00:10:51 10° NNE
Cosmos 1782 Rocket 4.3 00:02:42 10° NNW 00:06:45 38° W 00:07:24 36° WSW
In-Cosmos 22 4.2 00:05:25 43° SSE 00:07:11 68° E 00:12:39 10° NNE
PSLV R/B 3.7 00:03:30 10° NNE 00:07:51 60° ESE 00:08:34 52° SE
Cosmos 1758 3.3 00:04:12 10° N 00:08:10 70° E 00:08:38 62° SE
Cosmos 1726 3.8 00:08:01 10° NW 00:10:52 22° W 00:10:58 22° W
ASTEX 1 3.5 00:06:31 10° N 00:11:25 67° E 00:12:41 47° SSE
Resurs 1-4 Rocket 4.4 00:11:14 10° ENE 00:13:09 12° E 00:15:04 10° ESE
ATLAS CENTAUR R/B 1.7 00:09:01 10° NW 00:13:48 57° WSW 00:14:20 53° SSW
Cosmos 2278 Rocket 3.1 00:08:46 10° NNW 00:14:15 45° NE 00:18:23 17° ESE
Cosmos 494 Rocket 4.5 00:09:48 10° NNW 00:14:51 54° ENE 00:17:14 29° SE
SL-19 R/B 4.0 00:15:56 63° NNW 00:15:56 63° NNW 00:18:30 10° NNW
Cosmos 372 Rocket 4.0 00:13:48 41° SW 00:15:34 71° WNW 00:20:45 10° NNE
Cosmos 1745 Rocket 4.4 00:10:17 10° N 00:16:26 56° ENE 00:19:30 29° SE
ALOS 2 3.7 00:17:44 30° WSW 00:18:17 30° W 00:22:11 10° NNW
Cosmos 2151 Rocket 3.6 00:15:07 10° N 00:19:32 74° E 00:20:27 54° SE
Okean 2 Rocket 3.0 00:19:33 10° N 00:24:06 88° W 00:25:02 57° S
Cosmos 1300 Rocket 4.1 00:22:04 10° NNW 00:26:12 44° W 00:26:47 41° WSW
Cosmos 1626 2.0 00:27:00 71° ESE 00:27:05 72° E 00:30:45 10° NNE
Cosmos 371 Rocket 4.3 00:26:34 30° SE 00:27:35 33° ESE 00:31:55 10° NE
NOSS 3-1 (A) 4.0 00:22:56 10° NW 00:30:21 89° NE 00:37:52 15° SE
ATLAS 3B R/B 4.2 00:25:29 10° WNW 00:30:50 22° WSW 00:32:35 20° SW
Cosmos 1674 2.4 00:30:56 79° SW 00:31:07 84° W 00:34:54 10° N
Cosmos 1242 Rocket 2.7 00:29:08 10° NNW 00:32:34 58° W 00:32:34 58° W
Cosmos 2333 Rocket 2.6 00:32:04 29° SW 00:34:49 59° WNW 00:40:27 10° NNE
Cosmos 2322 Rocket 4.0 00:31:23 10° WSW 00:36:02 26° NW 00:40:44 10° N
SL-08 R/B 4.5 00:30:09 10° NNW 00:36:25 75° W 00:38:59 38° S
Cosmos 2322 3.8 00:34:10 36° SW 00:36:33 75° WNW 00:42:19 10° NNE
Cosmos 1867 3.5 00:36:15 44° SSW 00:37:59 74° ESE 00:43:28 10° NE
NOSS 3-1 (C) 4.2 00:31:23 10° NW 00:38:45 59° WSW 00:43:10 30° S
Okean 2 3.6 00:41:45 51° WSW 00:42:22 58° WNW 00:46:26 10° N
Cosmos 2298 Rocket 4.4 00:40:48 39° SSE 00:42:23 52° ESE 00:47:32 10° NNE
Cosmos 1844 Rocket 4.2 00:38:55 10° WNW 00:42:44 19° W 00:43:32 19° WSW
Thor Agena Rocket 4.4 00:40:27 10° NNE 00:45:24 40° E 00:47:25 29° SE
Sich 1 Rocket 4.2 00:42:53 10° NNW 00:47:01 40° W 00:47:39 38° WSW
USA 308 4.1 00:48:42 27° ESE 00:48:42 27° ESE 00:51:41 10° ENE
USA 290 2.3 00:49:09 70° NW 00:49:09 70° NW 00:52:12 10° NNE
SL-16 R/B 4.0 00:44:46 10° ESE 00:50:12 33° ENE 00:55:42 10° N
NOSS 2-2 (D) 4.2 00:46:33 10° NW 00:51:32 85° NE 00:58:12 12° SE
Cosmos 1417 Rocket 4.5 00:50:54 37° SSW 00:53:34 80° W 00:59:48 10° N
MOZ.5/SAFIR/RUBIN 5/SL-8 4.2 00:54:27 29° SE 00:56:40 59° ENE 01:01:21 10° N
Gblst 52 Del rocket 4.5 00:51:16 10° W 00:57:24 71° NNW 01:02:58 10° ENE
Cosmos 468 4.4 00:52:56 10° NNW 00:58:09 70° WSW 00:59:54 41° S
Meteor 1-16 Rocket 4.3 00:56:21 10° NNW 01:02:17 69° W 01:04:41 37° S
Cosmos 2219 Rocket 2.8 00:59:21 25° WSW 01:02:21 48° NW 01:07:46 10° NNE
Meteor 2-10 Rocket 4.1 00:56:46 10° N 01:02:26 60° ENE 01:05:43 24° SSE
Cosmos 1707 4.5 01:04:24 20° W 01:05:17 22° WNW 01:08:20 10° NNW
Okean 1 Rocket 3.0 01:01:06 10° NNW 01:05:31 73° W 01:06:38 49° SSW
USA 32 4.1 01:08:02 36° S 01:10:12 77° E 01:15:28 10° N
USA 215 4.1 01:04:09 10° NE 01:10:25 49° NNW 01:16:40 10° W
Cosmos 2315 Rocket 4.2 01:07:44 30° S 01:11:00 69° E 01:17:22 10° NNE
Cosmos 1709 Rocket 3.9 01:04:58 10° N 01:11:09 86° E 01:14:26 29° S
USA 305 3.1 01:11:44 47° SSE 01:12:04 48° SE 01:16:06 10° ENE
SL-14 R/B 3.1 01:11:29 58° SSW 01:12:11 83° WNW 01:16:05 10° N
Cosmos 1238 Rocket 3.9 01:10:28 10° NW 01:12:14 21° WNW 01:12:14 21° WNW
Cosmos 1300 2.5 01:14:24 10° N 01:18:12 86° W 01:18:57 56° S
S3M 4.2 01:17:44 31° SSW 01:20:48 63° WNW 01:27:09 10° N
CZ-2D R/B 2.9 01:16:05 10° NNE 01:21:12 42° E 01:24:03 23° SSE
ERBS 3.3 01:22:25 30° ESE 01:22:25 30° ESE 01:24:37 10° ENE
Cosmos 839 Rocket 4.2 01:18:33 10° NW 01:24:52 69° WSW 01:31:07 15° SSE
COSMOS 2428 3.5 01:24:40 22° WSW 01:27:59 44° NW 01:33:26 10° NNE
Cosmos 2237 Rocket 2.2 01:26:10 34° SSW 01:28:46 83° ESE 01:34:31 10° NNE
Cosmos 332 Rocket 4.0 01:27:04 35° S 01:28:55 62° ESE 01:33:40 10° NNE
Cosmos 1437 Rocket 3.5 01:26:03 10° NNW 01:29:28 33° W 01:29:41 33° WSW
Lacrosse 5 rocket 3.5 01:29:07 13° SE 01:29:31 13° ESE 01:31:20 10° E
Cosmos 1953 3.0 01:28:13 10° NNW 01:31:56 36° W 01:32:30 34° WSW
Cosmos 405 Rocket 3.9 01:32:44 27° W 01:33:32 29° WNW 01:36:54 10° N
CZ-4C R/B 3.5 01:30:42 10° NW 01:37:31 40° WSW 01:41:38 25° SSW
MOS 1 Rocket 4.2 01:34:12 12° SE 01:37:52 40° ENE 01:41:55 10° N
Cosmos 2150 Rocket 4.3 01:39:41 29° SW 01:42:10 56° WNW 01:47:16 10° NNE
Cosmos 2084 Rocket 4.0 01:42:19 32° SSE 01:43:14 38° ESE 01:46:46 10° NE
Cosmos 1455 Rocket 3.0 01:40:25 10° NNW 01:44:54 80° W 01:46:57 32° S
SME Rocket 3.2 01:45:41 36° SSW 01:47:07 58° WSW 01:52:00 10° NNW
USA 267 4.4 01:47:23 21° SW 01:47:28 21° WSW 01:52:13 10° WNW
EO 1 Delta rocket 4.2 01:43:25 10° N 01:47:56 53° WNW 01:50:14 29° SW
UNK 4.1 01:44:25 16° SSE 01:48:01 62° ENE 01:52:35 10° N
Cosmos 1943 Rocket 2.5 01:46:10 10° NNW 01:51:52 70° ENE 01:57:31 10° SE
Lacrosse 5 2.7 01:49:59 27° S 01:52:03 38° SE 01:56:45 10° ENE
Resurs 1-4 Rocket 2.1 01:48:30 10° NNE 01:53:48 81° ESE 01:56:52 26° S
USA 306 2.7 01:52:08 32° SW 01:53:59 86° SSE 01:58:10 10° ENE
USA 229 DEB 4.3 01:47:34 10° NW 01:54:29 43° WSW 01:59:48 18° S
USA 229 4.3 01:47:40 10° NW 01:54:35 44° WSW 01:59:58 18° S
USA 307 2.7 01:55:04 33° SW 01:56:54 81° SSE 02:01:06 10° ENE
Cosmos 2278 Rocket 3.0 01:53:09 10° NW 01:58:11 33° WSW 02:00:11 26° SW
Cosmos 1125 Rocket 4.3 01:56:26 22° WSW 01:59:21 40° WNW 02:04:16 10° N
Cosmos 1975 Rocket 3.2 01:59:45 31° SSW 02:01:43 63° WNW 02:06:10 10° N
NOSS 0 Rocket 4.5 01:57:41 20° WSW 02:01:49 51° NW 02:07:55 10° NNE
YAOGAN 11 4.2 02:00:10 17° SSE 02:03:31 82° ENE 02:08:03 10° NNW
COSMOS 2455 4.0 02:00:50 15° SSE 02:05:02 33° ESE 02:10:21 10° NE
Cosmos 371 Rocket 4.4 02:05:12 20° WSW 02:07:57 35° WNW 02:12:25 10° N
ADEOS II 2.4 02:06:32 10° NNE 02:11:46 63° ESE 02:15:40 18° S
GP-B 4.2 02:08:29 10° NNW 02:12:21 30° WNW 02:14:10 22° WSW
Cosmos 1025 Rocket 3.2 02:10:49 28° SSW 02:12:55 59° WNW 02:17:12 10° N
Cosmos 2369 Rocket 3.4 02:07:48 10° NNW 02:13:10 44° NE 02:18:28 10° SE
AQUA 3.9 02:09:36 10° NNE 02:14:24 79° ESE 02:17:33 21° S
IDEFIX/ARIANE 42P 3.1 02:09:13 10° NNE 02:14:25 56° E 02:18:39 15° S
SL-16 R/B 2.4 02:11:47 22° S 02:15:32 68° ESE 02:21:11 10° NNE
NPP 3.6 02:10:33 10° NNE 02:15:58 82° WNW 02:19:35 22° SSW
Cosmos 1980 4.5 02:16:55 18° WSW 02:20:48 42° NW 02:26:11 10° NNE
Cosmos 2154 Rocket 4.1 02:16:00 10° N 02:22:24 81° E 02:28:43 10° SSE
Meteor 1-28 Rocket 3.1 02:20:38 16° SSE 02:23:34 89° NE 02:27:18 10° NNW
USA 308 3.0 02:24:26 18° WSW 02:27:27 70° NNW 02:31:39 10° ENE
Meteor 1-24 Rocket 3.9 02:26:29 20° SSW 02:30:18 61° WNW 02:35:44 10° N
Cosmos 1544 Rocket 3.8 02:26:46 10° NNW 02:31:04 51° W 02:33:55 20° SSW
EO 1 Del DPAF 3.1 02:28:18 10° NNE 02:31:49 74° ESE 02:34:08 20° S
CRYOSAT 2 4.4 02:29:16 16° S 02:33:05 70° W 02:37:58 10° N
SL-16 R/B 2.8 02:28:36 15° S 02:33:34 51° W 02:39:39 10° NNW
IRS-1D 4.3 02:30:45 10° NNE 02:36:00 52° E 02:41:09 10° S
Cosmos 2251 Rocket 4.0 02:32:31 10° NNW 02:37:45 62° ENE 02:42:59 10° SE
Helios 1B rocket 4.3 02:37:24 10° NE 02:40:52 26° E 02:44:19 10° SSE
Cosmos 1271 Rocket 2.6 02:39:38 10° NNW 02:43:28 84° W 02:47:19 10° S
Cosmos 1455 2.6 02:40:20 10° NNW 02:43:51 42° W 02:46:11 19° SSW
Cosmos 614 Rocket 3.9 02:39:33 10° NNW 02:44:45 75° WSW 02:49:57 10° SSE
Meteor 2-5 Rocket 4.5 02:43:29 17° SW 02:47:35 40° WNW 02:52:55 10° N
Cosmos 2074 Rocket 4.3 02:41:51 10° NNW 02:47:53 49° W 02:53:28 12° SSW
Helios 1A 3.1 02:45:01 12° S 02:48:43 54° W 02:52:54 10° NNW
USA 305 3.6 02:47:36 10° W 02:51:41 49° NNW 02:55:45 10° ENE
Cosmos 292 Rocket 3.9 02:49:21 14° SSW 02:53:29 78° ESE 02:58:17 10° NNE
Cosmos 1726 Rocket 4.5 02:52:10 10° N 02:56:31 51° ENE 03:00:47 10° SSE
ERBS 3.4 02:54:28 11° W 02:57:09 33° NNW 03:00:00 10° NE
CZ-2D R/B 3.2 02:56:23 10° N 03:01:06 32° WNW 03:05:21 12° WSW
Lacrosse 5 rocket 1.2 03:04:38 15° SW 03:07:52 81° SE 03:12:01 10° NE
COSMOS 2441 4.4 03:03:30 10° NNE 03:08:23 81° WNW 03:13:13 10° SSW
Cosmos 1943 3.9 03:06:04 10° S 03:11:34 52° ESE 03:17:05 10° NE
Cosmos 2237 Rocket 3.9 03:09:10 10° W 03:13:34 22° NW 03:17:59 10° N
MOS 1 Rocket 4.5 03:13:28 12° SW 03:16:18 21° W 03:19:36 10° NW
Genesis I 4.0 03:14:19 10° NNW 03:18:22 59° NE 03:22:18 10° SE
Cosmos 962 Rocket 4.5 03:15:58 10° NNW 03:22:05 68° W 03:28:07 10° S
Cosmos 2181 Rocket 4.3 03:17:41 10° S 03:23:54 71° E 03:30:03 10° NNE
Cosmos 1703 3.9 03:22:18 10° SSW 03:26:02 41° WNW 03:29:47 10° N
Cosmos 2228 3.6 03:23:23 10° NNW 03:27:29 40° W 03:31:32 10° SSW
CZ-2C R/B 3.3 03:22:45 10° NNE 03:27:47 52° E 03:32:40 10° S
Cosmos 2058 Rocket 3.6 03:24:28 10° N 03:28:51 64° ENE 03:33:10 10° SSE
Cosmos 407 Rocket 3.6 03:24:21 10° NNW 03:29:43 86° WSW 03:34:59 10° SSE
Cosmos 2263 4.2 03:24:20 10° NNW 03:30:01 73° WSW 03:35:42 10° SSE
Resurs 1-4 Rocket 3.9 03:29:32 10° NNW 03:33:00 18° WNW 03:36:27 10° W
USA 306 4.1 03:29:58 10° W 03:33:53 38° N 03:37:49 10° ENE
Lacrosse 5 2.4 03:29:52 10° WSW 03:34:54 57° NNW 03:39:57 10° NE
Cosmos 1943 Rocket 3.5 03:30:57 10° NW 03:35:02 21° W 03:39:05 10° SSW
FENGYUN 3A 3.9 03:29:52 10° NNE 03:35:16 72° ESE 03:40:38 10° S
USA 307 4.1 03:32:51 10° W 03:36:48 39° NNW 03:40:46 10° ENE
ALOS 2.7 03:33:23 10° NNE 03:38:03 64° ESE 03:42:40 10° S
MOS 1-B Rocket 3.9 03:35:57 10° S 03:41:29 60° W 03:47:12 10° NNW
BREEZE-M DEB (TANK) 3.4 03:33:51 10° W 03:41:31 71° N 03:44:21 10° E
